User: anonymous   Login
Location: Vancouver
(49.2500°N, 123.1330°W)
Time: 11:47:09
(UTC-07:00)
Language:

H-2A R/B - Orbit

View from above orbital plane
View from above orbital plane
View from above satellite
View from above satellite

Ground track
Ground track

The orbit data is extracted from the following two-line orbital elements,

1 27601U 02056E   16243.33096775  .00000024  00000-0  24046-4 0  9991
2 27601  98.4137 314.6148 0073380  77.8004 324.2696 14.31730635716193
Epoch (UTC): 30 August 2016 07:56:35
Eccentricity: 0.0073380
inclination: 98.4137°
perigee height: 733 km
apogee height: 838 km
right ascension of ascending node: 314.6148°
argument of perigee: 77.8004°
revolutions per day: 14.31730635
mean anomaly at epoch: 324.2696°
orbit number at epoch: 71619

The dashed part of the orbit path shows where the satellite is in the earth's shadow,  

DLR